Gesamt
Dax-Seyresse Airport LFBY Wetter
|
(LFBY)
Klarer Himmel
Leichter Wind |
|
35 °C |
LFBY Terminal Area Forecast
| Date | Time (CEST) | Flight Rules | Wind Dir. | Speed | Type | Height AGL (ft) | Visibility | Remarks | ||||||
|---|---|---|---|---|---|---|---|---|---|---|---|---|---|---|
| 04-Sep | 19:00 | VFR | 270° | 10 kt | Clouds and Visibility are OK | >= 6 miles | ||||||||
| 04-Sep | 18:00 | VFR | 270° | 10 kt | Clouds and Visibility are OK | >= 6 miles | ||||||||
| 04-Sep | 17:00 | VFR | 270° | 10 kt | Clouds and Visibility are OK | >= 6 miles | ||||||||
| 04-Sep | 16:00 | VFR | 270° | 10 kt | Clouds and Visibility are OK | >= 6 miles | ||||||||
| 04-Sep | 15:00 | VFR | 270° | 10 kt | Clouds and Visibility are OK | >= 6 miles | ||||||||
| 04-Sep | 14:00 | VFR | 270° | 10 kt | Clouds and Visibility are OK | >= 6 miles | Becoming. | |||||||
Kürzlicher METAR-Verlauf für LFBY
| Date | Time (CEST) | Flight Rules | Wind Dir. | Speed | Type | Height AGL (ft) | Visibility | Temp (°C) | Temp (°F) | Dew Point (°C) | Dew Point (°F) | Rel. Humid. | Pressure | Density Altitude | Remarks |
|---|---|---|---|---|---|---|---|---|---|---|---|---|---|---|---|
| 04-Sep | 14:30 | VFR | 250° | 7 kt | 10000 meters | 35° | 95° | 16° | 60° | 32% | 1019 mb | 2.337 ft | |||
| 04-Sep | 14:00 | VFR | 250° | 7 kt | 10000 meters | 34° | 93° | 16° | 60° | 34% | 1020 mb | 2.187 ft | |||
| 04-Sep | 13:30 | VFR | 270° | 4 kt | 10000 meters | 33° | 91° | 16° | 60° | 36% | 1020 mb | 2.067 ft | |||
| 04-Sep | 13:00 | VFR | 310° | 4 kt | 10000 meters | 31° | 87° | 18° | 64° | 46% | 1020 mb | 1.827 ft | |||
| 04-Sep | 12:30 | VFR | Variable | 2 kt | 10000 meters | 31° | 87° | 18° | 64° | 46% | 1020 mb | 1.827 ft | |||
| 04-Sep | 12:00 | VFR | Variable | 3 kt | 10000 meters | 29° | 84° | 18° | 64° | 52% | 1020 mb | 1.587 ft | |||
| 04-Sep | 11:30 | VFR | 150° | 3 kt | 10000 meters | 27° | 80° | 17° | 62° | 54% | 1020 mb | 1.347 ft | |||
| 04-Sep | 11:00 | VFR | Variable | 3 kt | 10000 meters | 25° | 77° | 17° | 62° | 61% | 1019 mb | 1.137 ft | |||
| 04-Sep | 10:30 | VFR | Variable | 2 kt | 10000 meters | 23° | 73° | 17° | 62° | 69% | 1019 mb | 897 ft | |||
| 04-Sep | 10:00 | VFR | Variable | 3 kt | 10000 meters | 21° | 69° | 16° | 60° | 73% | 1019 mb | 657 ft | |||
| 04-Sep | 09:30 | VFR | 110° | 3 kt | 10000 meters | 18° | 64° | 16° | 60° | 88% | 1019 mb | 297 ft | |||
| 04-Sep | 09:00 | VFR | 110° | 3 kt | 10000 meters | 17° | 62° | 15° | 59° | 88% | 1019 mb | 177 ft | |||
| 04-Sep | 08:30 | VFR | Variable | 3 kt | 10000 meters | 16° | 60° | 15° | 59° | 94% | 1019 mb | 57 ft | |||
| 04-Sep | 08:00 | VFR | 90° | 3 kt | 10000 meters | 15° | 59° | 14° | 57° | 94% | 1019 mb | -63 ft | |||
| 04-Sep | 07:30 | VFR | 80° | 3 kt | 10000 meters | 15° | 59° | 14° | 57° | 94% | 1019 mb | -63 ft | |||
| 04-Sep | 07:00 | VFR | 80° | 3 kt | 10000 meters | 16° | 60° | 15° | 59° | 94% | 1019 mb | 57 ft | |||
| 04-Sep | 06:30 | VFR | 80° | 3 kt | 10000 meters | 16° | 60° | 16° | 60° | 100% | 1019 mb | 57 ft | |||
| 04-Sep | 06:00 | VFR | 90° | 2 kt | 10000 meters | 16° | 60° | 15° | 59° | 94% | 1019 mb | 57 ft | |||
| 04-Sep | 05:30 | VFR | 80° | 2 kt | 10000 meters | 15° | 59° | 15° | 59° | 100% | 1019 mb | -63 ft | |||
| 04-Sep | 05:00 | VFR | Variable | 2 kt | 10000 meters | 15° | 59° | 14° | 57° | 94% | 1019 mb | -63 ft | |||
| 04-Sep | 04:30 | VFR | 130° | 3 kt | 10000 meters | 15° | 59° | 14° | 57° | 94% | 1020 mb | -93 ft | |||
| 04-Sep | 04:00 | VFR | Calm | 10000 meters | 16° | 60° | 15° | 59° | 94% | 1020 mb | 27 ft | ||||
| 04-Sep | 03:30 | VFR | Variable | 1 kt | 10000 meters | 17° | 62° | 15° | 59° | 88% | 1020 mb | 147 ft | |||
| 04-Sep | 03:00 | VFR | 60° | 1 kt | 10000 meters | 17° | 62° | 16° | 60° | 94% | 1020 mb | 147 ft |
Anmelden
| Ihr Browser wird nicht unterstützt. aktualisieren Sie Ihren Browser |
